User: anonymous   Login
Location: Burgberg
(50.1428°N, 11.0671°E)
Time: 20:21:35
(UTC+00:00)
Language:

STARLINK-52 - Orbit

View from above orbital plane
View from above orbital plane
View from above satellite
View from above satellite

Ground track
Ground track

The orbit data is extracted from the following two-line orbital elements,

1 44259C 19029AA  20091.51949321  .00009868  00000-0  13249-3 0   917
2 44259  52.9986 131.6554 0001644  43.9955 116.4487 15.57287733    10
Epoch (UTC): 31 March 2020 12:28:04
Eccentricity: 0.0001644
inclination: 52.9986°
perigee height: 394 km
apogee height: 396 km
right ascension of ascending node: 131.6554°
argument of perigee: 43.9955°
revolutions per day: 15.57287733
mean anomaly at epoch: 116.4487°
orbit number at epoch: 1

The dashed part of the orbit path shows where the satellite is in the earth's shadow,  

DLR